Time,TemperatureF,DewpointF,PressureIn,WindDirection,WindDirectionDegrees,WindSpeedMPH,WindSpeedGustMPH,Humidity,HourlyPrecipIn,Conditions,Clouds,dailyrainin,SoftwareType,DateUTC
2013-08-07 00:00:00,72.2,69.4,30.04,South,183,0.0,0.0,91,0.00,RA,RA,0.00,WeatherDisplay:10.37,2013-08-07 04:00:00,
2013-08-07 00:05:00,72.1,69.3,30.04,South,183,0.0,0.0,91,0.00,RA,RA,0.00,WeatherDisplay:10.37,2013-08-07 04:05:00,
2013-08-07 00:10:00,72.1,69.6,30.04,South,183,0.0,0.0,92,0.00,CLR,CLR,0.00,WeatherDisplay:10.37,2013-08-07 04:10:00,
2013-08-07 00:15:00,72.0,69.5,30.04,South,183,0.0,0.0,92,0.00,CLR,CLR,0.00,WeatherDisplay:10.37,2013-08-07 04:15:00,
2013-08-07 00:20:00,72.0,69.5,30.04,South,183,0.0,0.0,92,0.00,CLR,CLR,0.00,WeatherDisplay:10.37,2013-08-07 04:20:00,
2013-08-07 00:25:00,71.9,69.4,30.04,South,183,0.0,1.0,92,0.00,CLR,CLR,0.00,WeatherDisplay:10.37,2013-08-07 04:25:00,
2013-08-07 00:30:00,71.9,69.4,30.04,South,182,0.0,1.0,92,0.00,CLR,CLR,0.00,WeatherDisplay:10.37,2013-08-07 04:30:00,
2013-08-07 00:40:00,71.8,69.3,30.04,South,182,0.0,0.0,92,0.00,CLR,CLR,0.00,WeatherDisplay:10.37,2013-08-07 04:40:00,
2013-08-07 00:45:00,71.8,69.3,30.04,South,183,0.0,0.0,92,0.00,CLR,CLR,0.00,WeatherDisplay:10.37,2013-08-07 04:45:00,
2013-08-07 00:50:00,71.7,69.2,30.04,South,182,0.0,0.0,92,0.00,CLR,CLR,0.00,WeatherDisplay:10.37,2013-08-07 04:50:00,
2013-08-07 00:55:00,71.6,69.5,30.05,South,182,0.0,0.0,93,0.00,CLR,CLR,0.00,WeatherDisplay:10.37,2013-08-07 04:55:00,
2013-08-07 01:00:00,71.5,69.4,30.05,South,181,0.0,2.0,93,0.00,CLR,CLR,0.00,WeatherDisplay:10.37,2013-08-07 05:00:00,
2013-08-07 01:10:00,71.3,69.2,30.04,South,188,0.0,5.0,93,0.00,CLR,CLR,0.00,WeatherDisplay:10.37,2013-08-07 05:10:00,
2013-08-07 01:20:00,71.2,69.4,30.05,SSW,208,0.0,0.0,94,0.00,CLR,CLR,0.00,WeatherDisplay:10.37,2013-08-07 05:20:00,
2013-08-07 01:30:00,71.1,69.3,30.05,SSW,208,0.0,1.0,94,0.00,CLR,CLR,0.00,WeatherDisplay:10.37,2013-08-07 05:30:00,
2013-08-07 01:35:00,71.0,69.2,30.04,SSW,208,0.0,0.0,94,0.00,CLR,CLR,0.00,WeatherDisplay:10.37,2013-08-07 05:35:00,
2013-08-07 01:40:00,71.0,69.2,30.04,SSW,208,0.0,0.0,94,0.00,CLR,CLR,0.00,WeatherDisplay:10.37,2013-08-07 05:40:00,
2013-08-07 01:45:00,70.9,69.4,30.04,SSW,208,0.0,0.0,95,0.00,CLR,CLR,0.00,WeatherDisplay:10.37,2013-08-07 05:45:00,
2013-08-07 01:50:00,70.9,69.4,30.05,SSW,208,0.0,1.0,95,0.00,CLR,CLR,0.00,WeatherDisplay:10.37,2013-08-07 05:50:00,
2013-08-07 01:55:00,70.8,69.3,30.05,SSW,208,0.0,1.0,95,0.00,CLR,CLR,0.00,WeatherDisplay:10.37,2013-08-07 05:55:00,
2013-08-07 02:00:00,70.8,69.3,30.04,SSW,208,0.0,0.0,95,0.00,CLR,CLR,0.00,WeatherDisplay:10.37,2013-08-07 06:00:00,
2013-08-07 02:10:00,70.6,69.1,30.05,SSW,208,0.0,0.0,95,0.00,CLR,CLR,0.00,WeatherDisplay:10.37,2013-08-07 06:10:00,
2013-08-07 02:15:00,70.6,69.1,30.05,SSW,208,0.0,0.0,95,0.00,CLR,CLR,0.00,WeatherDisplay:10.37,2013-08-07 06:15:00,
2013-08-07 02:20:00,70.5,69.0,30.04,SSW,208,0.0,0.0,95,0.00,CLR,CLR,0.00,WeatherDisplay:10.37,2013-08-07 06:20:00,
2013-08-07 02:30:00,70.4,69.2,30.04,SSW,208,0.0,0.0,96,0.00,,,0.00,WeatherDisplay:10.37,2013-08-07 06:30:00,
2013-08-07 02:40:00,70.3,69.1,30.04,SSW,208,0.0,0.0,96,0.00,,,0.00,WeatherDisplay:10.37,2013-08-07 06:40:00,
2013-08-07 02:50:00,70.2,69.0,30.04,SSW,208,0.0,0.0,96,0.00,,,0.00,WeatherDisplay:10.37,2013-08-07 06:50:00,
2013-08-07 03:00:00,70.1,68.6,30.03,SSW,208,0.0,0.0,95,0.00,CLR,CLR,0.00,WeatherDisplay:10.37,2013-08-07 07:00:00,
2013-08-07 03:10:00,70.1,68.6,30.03,SSW,208,0.0,0.0,95,0.00,CLR,CLR,0.00,WeatherDisplay:10.37,2013-08-07 07:10:00,
2013-08-07 03:20:00,70.1,68.6,30.03,SSW,208,0.0,0.0,95,0.00,CLR,CLR,0.00,WeatherDisplay:10.37,2013-08-07 07:20:00,
2013-08-07 03:25:00,70.1,68.6,30.03,SSW,208,0.0,0.0,95,0.00,CLR,CLR,0.00,WeatherDisplay:10.37,2013-08-07 07:25:00,
2013-08-07 03:30:00,70.1,68.6,30.03,SSW,208,0.0,1.0,95,0.00,CLR,CLR,0.00,WeatherDisplay:10.37,2013-08-07 07:30:00,
2013-08-07 03:40:00,70.0,68.8,30.03,SSW,208,0.0,1.0,96,0.00,,,0.00,WeatherDisplay:10.37,2013-08-07 07:40:00,
2013-08-07 03:45:00,70.0,68.8,30.03,SSW,208,0.0,0.0,96,0.00,,,0.00,WeatherDisplay:10.37,2013-08-07 07:45:00,
2013-08-07 03:50:00,70.0,68.8,30.04,SSW,208,0.0,0.0,96,0.00,,,0.00,WeatherDisplay:10.37,2013-08-07 07:50:00,
2013-08-07 04:00:00,69.9,68.4,30.03,SSW,208,0.0,3.0,95,0.00,CLR,CLR,0.00,WeatherDisplay:10.37,2013-08-07 08:00:00,
2013-08-07 04:10:00,69.9,68.4,30.02,SSW,200,0.0,0.0,95,0.00,CLR,CLR,0.00,WeatherDisplay:10.37,2013-08-07 08:10:00,
2013-08-07 04:15:00,69.9,68.4,30.02,SSW,198,0.0,0.0,95,0.00,CLR,CLR,0.00,WeatherDisplay:10.37,2013-08-07 08:15:00,
2013-08-07 04:25:00,69.9,68.4,30.03,SSW,198,0.0,0.0,95,0.00,CLR,CLR,0.00,WeatherDisplay:10.37,2013-08-07 08:25:00,
2013-08-07 04:30:00,69.9,68.4,30.03,SSW,198,0.0,0.0,95,0.00,CLR,CLR,0.00,WeatherDisplay:10.37,2013-08-07 08:30:00,
2013-08-07 04:35:00,69.9,68.4,30.03,SSW,198,0.0,0.0,95,0.00,CLR,CLR,0.00,WeatherDisplay:10.37,2013-08-07 08:35:00,
2013-08-07 04:40:00,69.8,68.3,30.03,SSW,198,0.0,0.0,95,0.00,CLR,CLR,0.00,WeatherDisplay:10.37,2013-08-07 08:40:00,
2013-08-07 04:45:00,69.8,68.3,30.03,SSW,198,0.0,0.0,95,0.00,CLR,CLR,0.00,WeatherDisplay:10.37,2013-08-07 08:45:00,
2013-08-07 04:50:00,69.7,68.2,30.03,SSW,198,0.0,0.0,95,0.00,CLR,CLR,0.00,WeatherDisplay:10.37,2013-08-07 08:50:00,
2013-08-07 04:55:00,69.6,68.1,30.03,SSW,198,0.0,0.0,95,0.00,CLR,CLR,0.00,WeatherDisplay:10.37,2013-08-07 08:55:00,
2013-08-07 05:00:00,69.6,68.1,30.03,SSW,198,0.0,0.0,95,0.00,CLR,CLR,0.00,WeatherDisplay:10.37,2013-08-07 09:00:00,
2013-08-07 05:05:00,69.5,68.0,30.03,SSW,198,0.0,0.0,95,0.00,CLR,CLR,0.00,WeatherDisplay:10.37,2013-08-07 09:05:00,
2013-08-07 05:10:00,69.5,68.0,30.03,SSW,198,0.0,0.0,95,0.00,CLR,CLR,0.00,WeatherDisplay:10.37,2013-08-07 09:10:00,
2013-08-07 05:15:00,69.4,67.9,30.03,SSW,198,0.0,0.0,95,0.00,CLR,CLR,0.00,WeatherDisplay:10.37,2013-08-07 09:15:00,
2013-08-07 05:25:00,69.3,68.1,30.03,SSW,198,0.0,0.0,96,0.00,,,0.00,WeatherDisplay:10.37,2013-08-07 09:25:00,
2013-08-07 05:30:00,69.3,68.1,30.02,SSW,198,0.0,0.0,96,0.00,,,0.00,WeatherDisplay:10.37,2013-08-07 09:30:00,
2013-08-07 05:40:00,69.1,67.9,30.02,SSW,198,0.0,0.0,96,0.00,,,0.00,WeatherDisplay:10.37,2013-08-07 09:40:00,
2013-08-07 05:45:00,69.1,67.9,30.02,SSW,198,0.0,0.0,96,0.00,,,0.00,WeatherDisplay:10.37,2013-08-07 09:45:00,
2013-08-07 05:50:00,69.0,67.8,30.02,SSW,198,0.0,0.0,96,0.00,,,0.00,WeatherDisplay:10.37,2013-08-07 09:50:00,
2013-08-07 05:55:00,68.9,67.7,30.02,SSW,198,0.0,0.0,96,0.00,,,0.00,WeatherDisplay:10.37,2013-08-07 09:55:00,
2013-08-07 06:00:00,68.8,67.6,30.03,SSW,198,0.0,0.0,96,0.00,,,0.00,WeatherDisplay:10.37,2013-08-07 10:00:00,
2013-08-07 06:10:00,68.7,67.5,30.02,SSW,198,0.0,0.0,96,0.00,,,0.00,WeatherDisplay:10.37,2013-08-07 10:10:00,
2013-08-07 06:15:00,68.6,67.7,30.02,SSW,198,0.0,0.0,97,0.00,,,0.00,WeatherDisplay:10.37,2013-08-07 10:15:00,
2013-08-07 06:25:00,68.6,67.7,30.03,SSW,196,0.0,0.0,97,0.00,,,0.00,WeatherDisplay:10.37,2013-08-07 10:25:00,
2013-08-07 06:30:00,68.6,67.7,30.03,SSW,196,0.0,0.0,97,0.00,,,0.00,WeatherDisplay:10.37,2013-08-07 10:30:00,
2013-08-07 06:40:00,68.4,67.5,30.03,South,183,0.0,1.0,97,0.00,,,0.00,WeatherDisplay:10.37,2013-08-07 10:40:00,
2013-08-07 06:45:00,68.4,67.5,30.03,South,170,0.0,1.0,97,0.00,,,0.00,WeatherDisplay:10.37,2013-08-07 10:45:00,
2013-08-07 06:50:00,68.4,67.8,30.03,SSE,167,0.0,0.0,98,0.00,,,0.00,WeatherDisplay:10.37,2013-08-07 10:50:00,
2013-08-07 06:55:00,68.5,67.9,30.03,SSE,167,0.0,0.0,98,0.00,,,0.00,WeatherDisplay:10.37,2013-08-07 10:55:00,
2013-08-07 07:00:00,68.5,67.9,30.03,SSE,167,0.0,0.0,98,0.00,,,0.00,WeatherDisplay:10.37,2013-08-07 11:00:00,
2013-08-07 07:10:00,68.5,67.9,30.04,SSE,167,0.0,0.0,98,0.00,,,0.00,WeatherDisplay:10.37,2013-08-07 11:10:00,
2013-08-07 07:15:00,68.4,67.5,30.04,SSE,167,0.0,0.0,97,0.00,,,0.00,WeatherDisplay:10.37,2013-08-07 11:15:00,
2013-08-07 07:20:00,68.4,67.5,30.04,SSE,167,0.0,0.0,97,0.00,,,0.00,WeatherDisplay:10.37,2013-08-07 11:20:00,
2013-08-07 07:25:00,68.5,67.9,30.05,SSE,167,0.0,0.0,98,0.00,,,0.00,WeatherDisplay:10.37,2013-08-07 11:25:00,
2013-08-07 07:30:00,68.5,67.9,30.05,SSE,167,0.0,0.0,98,0.00,,,0.00,WeatherDisplay:10.37,2013-08-07 11:30:00,
2013-08-07 07:40:00,68.6,68.0,30.04,SSE,167,0.0,0.0,98,0.00,,,0.00,WeatherDisplay:10.37,2013-08-07 11:40:00,
2013-08-07 07:45:00,68.6,68.0,30.04,SSE,167,0.0,1.0,98,0.00,,,0.00,WeatherDisplay:10.37,2013-08-07 11:45:00,
2013-08-07 07:50:00,68.7,68.1,30.05,SSE,167,0.0,0.0,98,0.00,,,0.00,WeatherDisplay:10.37,2013-08-07 11:50:00,
2013-08-07 07:55:00,68.7,68.1,30.05,SSE,167,0.0,0.0,98,0.00,,,0.00,WeatherDisplay:10.37,2013-08-07 11:55:00,
2013-08-07 08:00:00,68.7,68.1,30.05,SSE,167,0.0,0.0,98,0.00,,,0.00,WeatherDisplay:10.37,2013-08-07 12:00:00,
2013-08-07 08:10:00,68.8,67.9,30.06,SSE,167,0.0,0.0,97,0.00,,,0.00,WeatherDisplay:10.37,2013-08-07 12:10:00,
2013-08-07 08:20:00,68.9,68.3,30.06,SSE,167,0.0,0.0,98,0.00,,,0.00,WeatherDisplay:10.37,2013-08-07 12:20:00,
2013-08-07 08:25:00,68.9,68.3,30.05,SSE,167,0.0,0.0,98,0.00,,,0.00,WeatherDisplay:10.37,2013-08-07 12:25:00,
2013-08-07 08:35:00,69.0,68.2,30.06,SSE,167,0.0,0.0,97,0.00,,,0.00,WeatherDisplay:10.37,2013-08-07 12:35:00,
2013-08-07 08:45:00,69.1,68.5,30.06,SSE,167,0.0,0.0,98,0.00,,,0.00,WeatherDisplay:10.37,2013-08-07 12:45:00,
2013-08-07 08:50:00,69.2,68.6,30.06,SSE,167,0.0,0.0,98,0.00,,,0.00,WeatherDisplay:10.37,2013-08-07 12:50:00,
2013-08-07 08:55:00,69.2,68.6,30.05,SSE,167,0.0,0.0,98,0.00,,,0.00,WeatherDisplay:10.37,2013-08-07 12:55:00,
2013-08-07 09:00:00,69.2,68.6,30.05,SSE,167,0.0,0.0,98,0.00,,,0.00,WeatherDisplay:10.37,2013-08-07 13:00:00,
2013-08-07 09:10:00,69.4,68.8,30.06,SSE,167,0.0,0.0,98,0.00,,,0.00,WeatherDisplay:10.37,2013-08-07 13:10:00,
2013-08-07 09:15:00,69.4,68.8,30.06,SSE,167,0.0,0.0,98,0.00,,,0.00,WeatherDisplay:10.37,2013-08-07 13:15:00,
2013-08-07 09:25:00,69.6,69.0,30.06,SSE,168,0.0,5.0,98,0.00,,,0.00,WeatherDisplay:10.37,2013-08-07 13:25:00,
2013-08-07 09:30:00,69.6,68.7,30.06,South,186,2.0,6.0,97,0.00,,,0.00,WeatherDisplay:10.37,2013-08-07 13:30:00,
2013-08-07 09:35:00,69.7,68.8,30.06,South,177,0.0,7.0,97,0.00,,,0.00,WeatherDisplay:10.37,2013-08-07 13:35:00,
2013-08-07 09:45:00,69.9,69.0,30.06,SSW,212,5.0,8.0,97,0.00,,,0.00,WeatherDisplay:10.37,2013-08-07 13:45:00,
2013-08-07 09:50:00,70.0,69.1,30.06,SSW,211,3.0,7.0,97,0.00,,,0.00,WeatherDisplay:10.37,2013-08-07 13:50:00,
2013-08-07 09:55:00,70.0,68.8,30.06,SW,226,1.0,9.0,96,0.00,,,0.00,WeatherDisplay:10.37,2013-08-07 13:55:00,
2013-08-07 10:00:00,70.1,68.9,30.06,SW,216,1.0,6.0,96,0.00,,,0.00,WeatherDisplay:10.37,2013-08-07 14:00:00,
2013-08-07 10:05:00,70.2,69.1,30.06,SSW,200,0.0,6.0,96,0.00,,,0.00,WeatherDisplay:10.37,2013-08-07 14:05:00,
2013-08-07 10:15:00,70.7,69.5,30.07,SSW,200,0.0,0.0,96,0.00,,,0.00,WeatherDisplay:10.37,2013-08-07 14:15:00,
2013-08-07 10:25:00,71.0,69.5,30.07,SSW,201,0.0,3.0,95,0.00,CLR,CLR,0.00,WeatherDisplay:10.37,2013-08-07 14:25:00,
2013-08-07 10:30:00,71.1,69.6,30.07,SSW,201,0.0,3.0,95,0.00,CLR,CLR,0.00,WeatherDisplay:10.37,2013-08-07 14:30:00,
2013-08-07 10:40:00,71.2,69.4,30.07,SSW,201,0.0,3.0,94,0.00,CLR,CLR,0.00,WeatherDisplay:10.37,2013-08-07 14:40:00,
2013-08-07 10:50:00,71.4,69.6,30.08,SSW,202,0.0,1.0,94,0.00,CLR,CLR,0.00,WeatherDisplay:10.37,2013-08-07 14:50:00,
2013-08-07 11:00:00,71.6,69.8,30.08,SSW,202,0.0,1.0,94,0.00,CLR,CLR,0.00,WeatherDisplay:10.37,2013-08-07 15:00:00,
2013-08-07 11:10:00,71.7,69.6,30.08,SSW,202,0.0,1.0,93,0.00,CLR,CLR,0.00,WeatherDisplay:10.37,2013-08-07 15:10:00,
2013-08-07 11:15:00,71.8,69.7,30.08,SSW,203,0.0,5.0,93,0.00,CLR,CLR,0.00,WeatherDisplay:10.37,2013-08-07 15:15:00,
2013-08-07 11:20:00,71.9,69.8,30.08,SSW,206,0.0,2.0,93,0.00,CLR,CLR,0.00,WeatherDisplay:10.37,2013-08-07 15:20:00,
2013-08-07 11:25:00,72.0,69.9,30.08,SSW,205,0.0,2.0,93,0.00,CLR,CLR,0.00,WeatherDisplay:10.37,2013-08-07 15:25:00,
2013-08-07 11:30:00,72.1,69.6,30.08,SSW,205,0.0,3.0,92,0.00,CLR,CLR,0.00,WeatherDisplay:10.37,2013-08-07 15:30:00,
2013-08-07 11:40:00,72.4,69.6,30.07,SSW,207,1.0,6.0,91,0.00,CLR,CLR,0.00,WeatherDisplay:10.37,2013-08-07 15:40:00,
2013-08-07 11:45:00,72.7,69.9,30.07,SSW,209,0.0,1.0,91,0.00,CLR,CLR,0.00,WeatherDisplay:10.37,2013-08-07 15:45:00,
2013-08-07 11:55:00,73.0,69.6,30.07,SSW,210,0.0,1.0,89,0.00,CLR,CLR,0.00,WeatherDisplay:10.37,2013-08-07 15:55:00,
2013-08-07 12:00:00,73.2,69.8,30.07,SSW,211,0.0,1.0,89,0.00,CLR,CLR,0.00,WeatherDisplay:10.37,2013-08-07 16:00:00,
2013-08-07 12:10:00,73.7,70.6,30.07,SSW,211,0.0,1.0,90,0.00,CLR,CLR,0.00,WeatherDisplay:10.37,2013-08-07 16:10:00,
2013-08-07 12:15:00,73.9,70.8,30.07,SSW,211,0.0,4.0,90,0.00,CLR,CLR,0.00,WeatherDisplay:10.37,2013-08-07 16:15:00,
2013-08-07 12:20:00,74.1,70.3,30.07,SSW,211,0.0,12.0,88,0.00,CLR,CLR,0.00,WeatherDisplay:10.37,2013-08-07 16:20:00,
2013-08-07 12:30:00,74.4,70.6,30.07,SW,225,1.0,8.0,88,0.00,CLR,CLR,0.00,WeatherDisplay:10.37,2013-08-07 16:30:00,
2013-08-07 12:35:00,74.5,70.4,30.07,SW,232,0.0,6.0,87,0.00,CLR,CLR,0.00,WeatherDisplay:10.37,2013-08-07 16:35:00,
2013-08-07 12:40:00,74.7,70.9,30.07,SW,218,1.0,7.0,88,0.00,CLR,CLR,0.00,WeatherDisplay:10.37,2013-08-07 16:40:00,
2013-08-07 12:45:00,74.9,70.4,30.06,SW,219,0.0,11.0,86,0.00,CLR,CLR,0.00,WeatherDisplay:10.37,2013-08-07 16:45:00,
2013-08-07 12:50:00,75.1,70.6,30.06,SW,220,1.0,6.0,86,0.00,CLR,CLR,0.00,WeatherDisplay:10.37,2013-08-07 16:50:00,
2013-08-07 13:00:00,75.6,70.7,30.06,SSW,206,0.0,10.0,85,0.00,CLR,CLR,0.00,WeatherDisplay:10.37,2013-08-07 17:00:00,
2013-08-07 13:10:00,76.3,71.4,30.05,SW,222,0.0,1.0,85,0.00,CLR,CLR,0.00,WeatherDisplay:10.37,2013-08-07 17:10:00,
2013-08-07 13:15:00,76.6,71.4,30.05,SSW,195,0.0,2.0,84,0.00,CLR,CLR,0.00,WeatherDisplay:10.37,2013-08-07 17:15:00,
2013-08-07 13:20:00,76.9,71.7,30.05,South,184,0.0,1.0,84,0.00,CLR,CLR,0.00,WeatherDisplay:10.37,2013-08-07 17:20:00,
2013-08-07 13:30:00,77.4,71.1,30.05,SW,221,0.0,2.0,81,0.00,CLR,CLR,0.00,WeatherDisplay:10.37,2013-08-07 17:30:00,
2013-08-07 13:35:00,77.5,71.2,30.05,SW,218,0.0,8.0,81,0.00,CLR,CLR,0.00,WeatherDisplay:10.37,2013-08-07 17:35:00,
2013-08-07 13:45:00,77.7,71.4,30.05,SSW,212,1.0,4.0,81,0.00,CLR,CLR,0.00,WeatherDisplay:10.37,2013-08-07 17:45:00,
2013-08-07 13:50:00,77.7,71.8,30.05,SW,223,0.0,1.0,82,0.00,CLR,CLR,0.00,WeatherDisplay:10.37,2013-08-07 17:50:00,
2013-08-07 13:55:00,77.6,72.0,30.05,SW,220,0.0,6.0,83,0.00,CLR,CLR,0.00,WeatherDisplay:10.37,2013-08-07 17:55:00,
2013-08-07 14:00:00,77.5,71.9,30.05,SW,223,3.0,7.0,83,0.00,CLR,CLR,0.00,WeatherDisplay:10.37,2013-08-07 18:00:00,
2013-08-07 14:10:00,77.0,72.1,30.05,SSW,199,2.0,9.0,85,0.00,CLR,CLR,0.00,WeatherDisplay:10.37,2013-08-07 18:10:00,
2013-08-07 14:15:00,76.6,71.7,30.05,SW,215,0.0,9.0,85,0.00,CLR,CLR,0.00,WeatherDisplay:10.37,2013-08-07 18:15:00,
2013-08-07 14:20:00,76.2,71.7,30.05,SW,220,0.0,7.0,86,0.00,CLR,CLR,0.00,WeatherDisplay:10.37,2013-08-07 18:20:00,
2013-08-07 14:25:00,75.9,71.4,30.05,SSW,194,1.0,7.0,86,0.00,CLR,CLR,0.00,WeatherDisplay:10.37,2013-08-07 18:25:00,
2013-08-07 14:30:00,75.7,71.6,30.05,SSW,200,0.0,7.0,87,0.00,CLR,CLR,0.00,WeatherDisplay:10.37,2013-08-07 18:30:00,
2013-08-07 14:35:00,75.6,71.5,30.05,SSW,206,0.0,2.0,87,0.00,CLR,CLR,0.00,WeatherDisplay:10.37,2013-08-07 18:35:00,
2013-08-07 14:40:00,75.5,71.0,30.04,SSW,206,0.0,6.0,86,0.00,CLR,CLR,0.00,WeatherDisplay:10.37,2013-08-07 18:40:00,
2013-08-07 14:45:00,75.5,71.0,30.04,South,190,1.0,6.0,86,0.00,CLR,CLR,0.00,WeatherDisplay:10.37,2013-08-07 18:45:00,
2013-08-07 14:50:00,75.5,71.4,30.04,SSW,194,0.0,3.0,87,0.00,CLR,CLR,0.00,WeatherDisplay:10.37,2013-08-07 18:50:00,
2013-08-07 14:55:00,75.6,71.5,30.04,SW,230,0.0,1.0,87,0.00,CLR,CLR,0.00,WeatherDisplay:10.37,2013-08-07 18:55:00,
2013-08-07 15:00:00,75.7,71.6,30.05,SW,230,1.0,11.0,87,0.00,CLR,CLR,0.00,WeatherDisplay:10.37,2013-08-07 19:00:00,
2013-08-07 15:10:00,76.1,71.9,30.04,WSW,237,1.0,9.0,87,0.00,CLR,CLR,0.00,WeatherDisplay:10.37,2013-08-07 19:10:00,
2013-08-07 15:15:00,76.3,71.8,30.04,SW,218,5.0,14.0,86,0.00,CLR,CLR,0.00,WeatherDisplay:10.37,2013-08-07 19:15:00,
2013-08-07 15:25:00,76.3,71.8,30.04,SW,214,2.0,7.0,86,0.00,CLR,CLR,0.00,WeatherDisplay:10.37,2013-08-07 19:25:00,
2013-08-07 15:30:00,76.4,72.6,30.04,SSW,207,0.0,8.0,88,0.00,CLR,CLR,0.00,WeatherDisplay:10.37,2013-08-07 19:30:00,
2013-08-07 15:40:00,76.5,71.7,30.04,WSW,243,0.0,6.0,85,0.00,CLR,CLR,0.00,WeatherDisplay:10.37,2013-08-07 19:40:00,
2013-08-07 15:45:00,76.6,72.1,30.03,SW,223,1.0,9.0,86,0.00,CLR,CLR,0.00,WeatherDisplay:10.37,2013-08-07 19:45:00,
2013-08-07 15:50:00,76.5,71.7,30.03,SW,219,3.0,8.0,85,0.00,CLR,CLR,0.00,WeatherDisplay:10.37,2013-08-07 19:50:00,
2013-08-07 15:55:00,76.2,72.0,30.03,SW,232,2.0,11.0,87,0.01,RA,RA,0.01,WeatherDisplay:10.37,2013-08-07 19:55:00,
2013-08-07 16:00:00,75.7,71.9,30.03,SW,217,3.0,16.0,88,0.01,RA,RA,0.02,WeatherDisplay:10.37,2013-08-07 20:00:00,
2013-08-07 16:10:00,75.0,71.6,30.03,SSW,198,6.0,14.0,89,0.00,RA,RA,0.03,WeatherDisplay:10.37,2013-08-07 20:10:00,
2013-08-07 16:15:00,74.8,72.0,30.03,SSW,197,1.0,8.0,91,0.00,,,0.03,WeatherDisplay:10.37,2013-08-07 20:15:00,
2013-08-07 16:20:00,74.6,71.8,30.03,South,188,0.0,5.0,91,0.00,CLR,CLR,0.03,WeatherDisplay:10.37,2013-08-07 20:20:00,
2013-08-07 16:25:00,74.5,72.0,30.03,South,177,0.0,0.0,92,0.00,CLR,CLR,0.03,WeatherDisplay:10.37,2013-08-07 20:25:00,
2013-08-07 16:30:00,74.4,72.2,30.03,South,178,0.0,0.0,93,0.00,CLR,CLR,0.03,WeatherDisplay:10.37,2013-08-07 20:30:00,
2013-08-07 16:40:00,74.2,72.4,30.03,South,178,0.0,0.0,94,0.00,CLR,CLR,0.03,WeatherDisplay:10.37,2013-08-07 20:40:00,
2013-08-07 16:45:00,74.0,72.1,30.03,South,178,0.0,0.0,94,0.00,CLR,CLR,0.03,WeatherDisplay:10.37,2013-08-07 20:45:00,
2013-08-07 16:50:00,73.7,71.9,30.03,South,178,0.0,0.0,94,0.00,CLR,CLR,0.03,WeatherDisplay:10.37,2013-08-07 20:50:00,
2013-08-07 16:55:00,73.4,71.9,30.03,South,178,0.0,0.0,95,0.00,CLR,CLR,0.03,WeatherDisplay:10.37,2013-08-07 20:55:00,
2013-08-07 17:00:00,73.2,71.7,30.03,South,178,0.0,0.0,95,0.00,CLR,CLR,0.03,WeatherDisplay:10.37,2013-08-07 21:00:00,
2013-08-07 17:10:00,73.0,71.8,30.03,SSE,147,0.0,6.0,96,0.00,,,0.03,WeatherDisplay:10.37,2013-08-07 21:10:00,
2013-08-07 17:15:00,72.9,71.4,30.02,SE,133,0.0,6.0,95,0.00,CLR,CLR,0.03,WeatherDisplay:10.37,2013-08-07 21:15:00,
2013-08-07 17:25:00,73.0,71.2,30.02,SE,143,1.0,8.0,94,0.00,CLR,CLR,0.03,WeatherDisplay:10.37,2013-08-07 21:25:00,
2013-08-07 17:30:00,73.0,71.5,30.02,SSE,149,0.0,1.0,95,0.00,CLR,CLR,0.03,WeatherDisplay:10.37,2013-08-07 21:30:00,
2013-08-07 17:40:00,73.3,71.8,30.02,South,176,0.0,0.0,95,0.00,CLR,CLR,0.03,WeatherDisplay:10.37,2013-08-07 21:40:00,
2013-08-07 17:45:00,73.4,72.2,30.03,SSE,168,0.0,1.0,96,0.00,,,0.03,WeatherDisplay:10.37,2013-08-07 21:45:00,
2013-08-07 17:55:00,73.3,71.8,30.03,SE,125,0.0,0.0,95,0.00,CLR,CLR,0.03,WeatherDisplay:10.37,2013-08-07 21:55:00,
2013-08-07 18:00:00,73.4,72.2,30.03,SE,125,0.0,0.0,96,0.00,,,0.03,WeatherDisplay:10.37,2013-08-07 22:00:00,
2013-08-07 18:10:00,73.4,72.2,30.03,SE,125,0.0,0.0,96,0.00,,,0.03,WeatherDisplay:10.37,2013-08-07 22:10:00,
2013-08-07 18:15:00,73.5,72.3,30.03,SE,125,0.0,0.0,96,0.00,,,0.03,WeatherDisplay:10.37,2013-08-07 22:15:00,
2013-08-07 18:20:00,73.4,71.9,30.02,SE,125,0.0,0.0,95,0.00,CLR,CLR,0.03,WeatherDisplay:10.37,2013-08-07 22:20:00,
2013-08-07 18:25:00,73.4,72.2,30.02,SE,125,0.0,0.0,96,0.00,,,0.03,WeatherDisplay:10.37,2013-08-07 22:25:00,
2013-08-07 18:30:00,73.3,72.1,30.03,SE,125,0.0,0.0,96,0.00,,,0.03,WeatherDisplay:10.37,2013-08-07 22:30:00,
2013-08-07 18:40:00,73.4,72.2,30.03,SE,125,0.0,0.0,96,0.00,,,0.03,WeatherDisplay:10.37,2013-08-07 22:40:00,
2013-08-07 18:45:00,73.4,71.9,30.03,SE,125,0.0,0.0,95,0.00,CLR,CLR,0.03,WeatherDisplay:10.37,2013-08-07 22:45:00,
2013-08-07 18:50:00,73.4,71.9,30.03,SE,125,0.0,0.0,95,0.00,CLR,CLR,0.03,WeatherDisplay:10.37,2013-08-07 22:50:00,
2013-08-07 18:55:00,73.3,71.8,30.03,SE,125,0.0,0.0,95,0.00,CLR,CLR,0.03,WeatherDisplay:10.37,2013-08-07 22:55:00,
2013-08-07 19:00:00,73.3,72.1,30.03,SE,125,0.0,1.0,96,0.00,,,0.03,WeatherDisplay:10.37,2013-08-07 23:00:00,
2013-08-07 19:10:00,73.2,72.0,30.03,SE,125,0.0,0.0,96,0.00,,,0.03,WeatherDisplay:10.37,2013-08-07 23:10:00,
2013-08-07 19:15:00,73.2,72.0,30.03,SE,125,0.0,0.0,96,0.00,,,0.03,WeatherDisplay:10.37,2013-08-07 23:15:00,
2013-08-07 19:20:00,73.1,71.9,30.03,SE,125,0.0,0.0,96,0.00,,,0.03,WeatherDisplay:10.37,2013-08-07 23:20:00,
2013-08-07 19:25:00,73.0,71.8,30.03,SE,125,0.0,0.0,96,0.00,,,0.03,WeatherDisplay:10.37,2013-08-07 23:25:00,
2013-08-07 19:30:00,73.0,71.8,30.02,SE,125,0.0,0.0,96,0.00,,,0.03,WeatherDisplay:10.37,2013-08-07 23:30:00,
2013-08-07 19:40:00,73.1,71.9,30.02,SE,125,0.0,0.0,96,0.00,,,0.03,WeatherDisplay:10.37,2013-08-07 23:40:00,
2013-08-07 19:50:00,73.0,71.8,30.03,SE,125,0.0,0.0,96,0.00,,,0.03,WeatherDisplay:10.37,2013-08-07 23:50:00,
2013-08-07 20:00:00,72.8,71.6,30.03,SE,125,0.0,0.0,96,0.00,,,0.03,WeatherDisplay:10.37,2013-08-08 00:00:00,
2013-08-07 20:10:00,72.6,71.4,30.03,SE,125,0.0,0.0,96,0.00,,,0.03,WeatherDisplay:10.37,2013-08-08 00:10:00,
2013-08-07 20:15:00,72.5,71.3,30.02,SE,125,0.0,1.0,96,0.00,,,0.03,WeatherDisplay:10.37,2013-08-08 00:15:00,
2013-08-07 20:20:00,72.4,71.2,30.02,SE,125,0.0,1.0,96,0.00,,,0.03,WeatherDisplay:10.37,2013-08-08 00:20:00,
2013-08-07 20:25:00,72.3,71.1,30.02,SE,125,0.0,0.0,96,0.00,,,0.03,WeatherDisplay:10.37,2013-08-08 00:25:00,
2013-08-07 20:30:00,72.2,71.0,30.02,SE,125,0.0,0.0,96,0.00,,,0.03,WeatherDisplay:10.37,2013-08-08 00:30:00,
2013-08-07 20:40:00,71.9,70.7,30.02,SE,125,0.0,0.0,96,0.00,,,0.03,WeatherDisplay:10.37,2013-08-08 00:40:00,
2013-08-07 20:45:00,71.8,70.6,30.02,SE,125,0.0,0.0,96,0.00,,,0.03,WeatherDisplay:10.37,2013-08-08 00:45:00,
2013-08-07 20:50:00,71.6,70.4,30.03,SE,125,0.0,0.0,96,0.00,,,0.03,WeatherDisplay:10.37,2013-08-08 00:50:00,
2013-08-07 20:55:00,71.5,70.3,30.03,SE,125,0.0,0.0,96,0.00,,,0.03,WeatherDisplay:10.37,2013-08-08 00:55:00,
2013-08-07 21:00:00,71.4,70.2,30.03,SE,125,0.0,0.0,96,0.00,,,0.03,WeatherDisplay:10.37,2013-08-08 01:00:00,
2013-08-07 21:10:00,71.2,70.0,30.03,SE,125,0.0,0.0,96,0.00,,,0.03,WeatherDisplay:10.37,2013-08-08 01:10:00,
2013-08-07 21:15:00,71.1,69.9,30.03,SE,125,0.0,0.0,96,0.00,,,0.03,WeatherDisplay:10.37,2013-08-08 01:15:00,
2013-08-07 21:25:00,70.9,69.7,30.03,SE,125,0.0,0.0,96,0.00,,,0.03,WeatherDisplay:10.37,2013-08-08 01:25:00,
2013-08-07 21:30:00,70.9,69.7,30.04,SE,125,0.0,1.0,96,0.00,,,0.03,WeatherDisplay:10.37,2013-08-08 01:30:00,
2013-08-07 21:40:00,70.7,69.8,30.05,SE,125,0.0,0.0,97,0.00,,,0.03,WeatherDisplay:10.37,2013-08-08 01:40:00,
2013-08-07 21:45:00,70.7,69.8,30.05,SE,125,0.0,0.0,97,0.00,,,0.03,WeatherDisplay:10.37,2013-08-08 01:45:00,
2013-08-07 21:50:00,70.7,69.8,30.05,SE,125,0.0,0.0,97,0.00,,,0.03,WeatherDisplay:10.37,2013-08-08 01:50:00,
2013-08-07 21:55:00,70.7,69.8,30.06,SE,125,0.0,0.0,97,0.00,,,0.03,WeatherDisplay:10.37,2013-08-08 01:55:00,
2013-08-07 22:00:00,70.7,69.8,30.06,SE,125,0.0,0.0,97,0.00,,,0.03,WeatherDisplay:10.37,2013-08-08 02:00:00,
2013-08-07 22:10:00,70.7,69.8,30.06,SE,125,0.0,0.0,97,0.00,,,0.03,WeatherDisplay:10.37,2013-08-08 02:10:00,
2013-08-07 22:15:00,70.6,69.7,30.06,SE,125,0.0,0.0,97,0.00,,,0.03,WeatherDisplay:10.37,2013-08-08 02:15:00,
2013-08-07 22:20:00,70.5,69.6,30.06,SE,125,0.0,0.0,97,0.00,,,0.03,WeatherDisplay:10.37,2013-08-08 02:20:00,
2013-08-07 22:30:00,70.4,69.5,30.06,SE,125,0.0,0.0,97,0.00,,,0.03,WeatherDisplay:10.37,2013-08-08 02:30:00,
2013-08-07 22:40:00,70.4,69.8,30.06,SE,125,0.0,0.0,98,0.00,,,0.03,WeatherDisplay:10.37,2013-08-08 02:40:00,
2013-08-07 22:45:00,70.3,69.4,30.06,SE,125,0.0,0.0,97,0.00,,,0.03,WeatherDisplay:10.37,2013-08-08 02:45:00,
2013-08-07 22:50:00,70.3,69.4,30.06,SE,125,0.0,0.0,97,0.00,,,0.03,WeatherDisplay:10.37,2013-08-08 02:50:00,
2013-08-07 22:55:00,70.3,69.4,30.06,SE,125,0.0,0.0,97,0.00,,,0.03,WeatherDisplay:10.37,2013-08-08 02:55:00,
2013-08-07 23:00:00,70.2,69.3,30.06,SE,125,0.0,0.0,97,0.00,,,0.03,WeatherDisplay:10.37,2013-08-08 03:00:00,
2013-08-07 23:10:00,70.2,69.6,30.07,SE,125,0.0,0.0,98,0.00,,,0.03,WeatherDisplay:10.37,2013-08-08 03:10:00,
2013-08-07 23:15:00,70.2,69.6,30.07,SE,125,0.0,0.0,98,0.00,,,0.03,WeatherDisplay:10.37,2013-08-08 03:15:00,
2013-08-07 23:25:00,70.3,69.7,30.07,SE,125,0.0,0.0,98,0.00,,,0.03,WeatherDisplay:10.37,2013-08-08 03:25:00,
2013-08-07 23:30:00,70.3,69.7,30.07,SE,125,0.0,0.0,98,0.00,,,0.03,WeatherDisplay:10.37,2013-08-08 03:30:00,
2013-08-07 23:35:00,70.3,69.7,30.07,SE,125,0.0,0.0,98,0.00,,,0.03,WeatherDisplay:10.37,2013-08-08 03:35:00,
2013-08-07 23:45:00,70.3,69.7,30.07,SE,126,0.0,5.0,98,0.00,,,0.03,WeatherDisplay:10.37,2013-08-08 03:45:00,
2013-08-07 23:50:00,70.3,69.7,30.08,SE,127,0.0,5.0,98,0.00,,,0.03,WeatherDisplay:10.37,2013-08-08 03:50:00,
2013-08-07 23:55:00,70.3,69.7,30.07,SSE,160,2.0,6.0,98,0.00,,,0.03,WeatherDisplay:10.37,2013-08-08 03:55:00,